| time (UTC) | temp F | wind direction | speed knots | gust knots | rain 1hr in | rain 24hr in | rain mn in | humidity % | barometer mb |
| 20260904210048 | 74 | 298 | 2.6 | 9.6 | 0.00 | 0.03 | 0.03 | 59 | 1008.7 |
| 20260904204559 | 74 | 342 | 5.2 | 9.6 | 0.00 | 0.03 | 0.03 | 57 | 1008.6 |
| 20260904203056 | 74 | 310 | 4.3 | 11.3 | 0.00 | 0.03 | 0.03 | 58 | 1008.6 |
| 20260904201552 | 74 | 341 | 4.3 | 9.6 | 0.00 | 0.03 | 0.03 | 60 | 1008.6 |
| 20260904200048 | 75 | 314 | 2.6 | 7.8 | 0.00 | 0.03 | 0.03 | 60 | 1008.5 |
| 20260904194607 | 76 | 304 | 0.9 | 7.0 | 0.00 | 0.03 | 0.03 | 58 | 1008.4 |
| 20260904193050 | 77 | 321 | 2.6 | 8.7 | 0.00 | 0.03 | 0.03 | 58 | 1008.4 |
| 20260904191546 | 78 | 319 | 2.6 | 7.8 | 0.00 | 0.03 | 0.03 | 58 | 1008.3 |
| 20260904190059 | 79 | 306 | 5.2 | 9.6 | 0.00 | 0.03 | 0.03 | 55 | 1008.5 |
| 20260904184548 | 78 | 291 | 2.6 | 7.0 | 0.00 | 0.03 | 0.03 | 58 | 1008.8 |
| 20260904183114 | 77 | 0 | 2.6 | 4.3 | 0.00 | 0.03 | 0.03 | 66 | 1008.7 |
| 20260904181559 | 75 | 19 | 0.9 | 3.5 | 0.01 | 0.03 | 0.03 | 75 | 1008.8 |
| 20260904180056 | 73 | 346 | 0.9 | 4.3 | 0.03 | 0.03 | 0.03 | 77 | 1009.0 |
| 20260904174548 | 73 | 341 | 1.7 | 4.3 | 0.03 | 0.03 | 0.03 | 78 | 1009.0 |
| 20260904173059 | 72 | 0 | 0.0 | 7.0 | 0.03 | 0.03 | 0.03 | 79 | 1008.9 |
| 20260904171556 | 74 | 284 | 4.3 | 7.8 | 0.02 | 0.02 | 0.02 | 71 | 1009.2 |
| 20260904170053 | 76 | 350 | 3.5 | 8.7 | 0.00 | 0.00 | 0.00 | 57 | 1009.0 |
| 20260904164603 | 78 | 355 | 1.7 | 10.4 | 0.00 | 0.00 | 0.00 | 53 | 1009.0 |
| 20260904163106 | 78 | 307 | 2.6 | 6.1 | 0.00 | 0.00 | 0.00 | 56 | 1009.0 |
| 20260904161555 | 77 | 331 | 1.7 | 7.8 | 0.00 | 0.00 | 0.00 | 61 | 1009.3 |
| 20260904160105 | 78 | 315 | 0.9 | 5.2 | 0.00 | 0.00 | 0.00 | 59 | 1009.4 |
| 20260904154601 | 79 | 298 | 2.6 | 6.1 | 0.00 | 0.01 | 0.00 | 59 | 1009.4 |
| 20260904153107 | 79 | 211 | 0.9 | 6.1 | 0.00 | 0.01 | 0.00 | 63 | 1009.4 |
| 20260904151557 | 78 | 284 | 0.9 | 7.0 | 0.00 | 0.01 | 0.00 | 68 | 1009.5 |
| 20260904150103 | 77 | 297 | 0.0 | 7.0 | 0.00 | 0.01 | 0.00 | 69 | 1009.6 |
| 20260904144550 | 76 | 348 | 0.0 | 6.1 | 0.00 | 0.01 | 0.00 | 76 | 1009.8 |
| 20260904143058 | 76 | 279 | 1.7 | 6.1 | 0.00 | 0.01 | 0.00 | 86 | 1009.7 |
| 20260904141559 | 78 | 314 | 0.9 | 5.2 | 0.00 | 0.01 | 0.00 | 100 | 1009.9 |
| 20260904140106 | 78 | 302 | 1.7 | 6.1 | 0.00 | 0.01 | 0.00 | 100 | 1010.1 |
| 20260904134550 | 77 | 0 | 0.0 | 4.3 | 0.00 | 0.01 | 0.00 | 100 | 1010.0 |
| 20260904133104 | 76 | 296 | 1.7 | 5.2 | 0.00 | 0.01 | 0.00 | 100 | 1010.1 |
| 20260904131548 | 76 | 346 | 1.7 | 3.5 | 0.00 | 0.01 | 0.00 | 100 | 1010.0 |
| 20260904130104 | 75 | 304 | 1.7 | 4.3 | 0.00 | 0.01 | 0.00 | 100 | 1010.0 |
| 20260904124552 | 74 | 360 | 0.9 | 3.5 | 0.00 | 0.03 | 0.00 | 100 | 1010.1 |
| 20260904123047 | 73 | 308 | 2.6 | 4.3 | 0.00 | 0.03 | 0.00 | 100 | 1010.2 |
| 20260904121600 | 74 | 301 | 1.7 | 6.1 | 0.00 | 0.03 | 0.00 | 100 | 1010.3 |
| 20260904120107 | 73 | 310 | 2.6 | 4.3 | 0.00 | 0.03 | 0.00 | 100 | 1010.2 |
| 20260904114549 | 73 | 320 | 0.9 | 4.3 | 0.00 | 0.08 | 0.00 | 100 | 1010.0 |
| 20260904113048 | 73 | 360 | 1.7 | 3.5 | 0.00 | 0.08 | 0.00 | 100 | 1009.9 |
| 20260904111549 | 72 | 317 | 0.9 | 2.6 | 0.00 | 0.08 | 0.00 | 100 | 1009.9 |
| 20260904110058 | 72 | 322 | 0.9 | 3.5 | 0.00 | 0.08 | 0.00 | 100 | 1009.9 |
| 20260904104606 | 71 | 320 | 0.9 | 1.7 | 0.00 | 0.09 | 0.00 | 100 | 1009.8 |
| 20260904103047 | 71 | 269 | 0.0 | 1.7 | 0.00 | 0.09 | 0.00 | 100 | 1009.6 |
| 20260904101547 | 70 | 0 | 0.0 | 1.7 | 0.00 | 0.09 | 0.00 | 100 | 1009.6 |
| 20260904100057 | 71 | 269 | 0.0 | 1.7 | 0.00 | 0.09 | 0.00 | 100 | 1009.6 |
| 20260904094552 | 71 | 269 | 0.0 | 2.6 | 0.00 | 0.11 | 0.00 | 100 | 1009.7 |
| 20260904093049 | 71 | 294 | 0.9 | 1.7 | 0.00 | 0.11 | 0.00 | 100 | 1009.7 |
| 20260904091555 | 71 | 255 | 0.0 | 2.6 | 0.00 | 0.11 | 0.00 | 100 | 1009.6 |
| 20260904090053 | 71 | 308 | 0.0 | 1.7 | 0.00 | 0.11 | 0.00 | 100 | 1009.8 |
| 20260904084547 | 71 | 296 | 1.7 | 5.2 | 0.00 | 0.23 | 0.00 | 100 | 1009.9 |
| 20260904083057 | 71 | 217 | 1.7 | 5.2 | 0.00 | 0.23 | 0.00 | 100 | 1009.8 |
| 20260904081555 | 71 | 0 | 0.9 | 6.1 | 0.00 | 0.23 | 0.00 | 100 | 1009.5 |
| 20260904080047 | 71 | 224 | 0.9 | 4.3 | 0.00 | 0.23 | 0.00 | 100 | 1009.7 |
| 20260904074558 | 71 | 271 | 0.9 | 3.5 | 0.00 | 0.23 | 0.00 | 100 | 1009.8 |
| 20260904073055 | 70 | 216 | 0.9 | 3.5 | 0.00 | 0.23 | 0.00 | 100 | 1009.8 |
| 20260904071548 | 70 | 0 | 0.9 | 4.3 | 0.00 | 0.23 | 0.00 | 100 | 1010.1 |
| 20260904070101 | 70 | 0 | 0.9 | 3.5 | 0.00 | 0.23 | 0.00 | 100 | 1010.1 |
| 20260904064556 | 70 | 275 | 0.9 | 5.2 | 0.00 | 0.23 | 0.00 | 100 | 1010.2 |
| 20260904063052 | 70 | 207 | 0.9 | 3.5 | 0.00 | 0.23 | 0.00 | 100 | 1010.3 |
| 20260904061552 | 70 | 285 | 0.9 | 7.0 | 0.00 | 0.23 | 0.00 | 100 | 1010.6 |
| 20260904060057 | 70 | 251 | 1.7 | 6.1 | 0.00 | 0.23 | 0.00 | 100 | 1010.9 |
| 20260904054603 | 70 | 255 | 0.9 | 2.6 | 0.00 | 0.23 | 0.00 | 100 | 1011.0 |
| 20260904053103 | 70 | 209 | 1.7 | 4.3 | 0.00 | 0.23 | 0.00 | 100 | 1011.0 |
| 20260904051554 | 70 | 217 | 0.9 | 3.5 | 0.00 | 0.23 | 0.00 | 100 | 1011.2 |
| 20260904050055 | 70 | 0 | 0.9 | 3.5 | 0.00 | 0.23 | 0.00 | 100 | 1011.3 |
| 20260904044557 | 70 | 169 | 0.0 | 3.5 | 0.00 | 0.23 | 0.00 | 100 | 1011.4 |
| 20260904043102 | 69 | 0 | 0.0 | 0.0 | 0.00 | 0.23 | 0.00 | 100 | 1011.5 |
| 20260904041554 | 69 | 0 | 0.0 | 2.6 | 0.00 | 0.23 | 0.00 | 100 | 1011.6 |
| 20260904040053 | 69 | 0 | 0.0 | 0.0 | 0.00 | 0.23 | 0.00 | 100 | 1011.8 |
| 20260904034547 | 69 | 0 | 0.0 | 0.0 | 0.00 | 0.23 | 0.23 | 100 | 1012.0 |
| 20260904033056 | 69 | 0 | 0.0 | 0.0 | 0.00 | 0.23 | 0.23 | 100 | 1012.1 |
| 20260904031554 | 69 | 0 | 0.0 | 0.0 | 0.00 | 0.23 | 0.23 | 100 | 1012.1 |
| 20260904030108 | 69 | 0 | 0.0 | 0.0 | 0.00 | 0.23 | 0.23 | 100 | 1012.1 |
| 20260904024601 | 69 | 0 | 0.0 | 0.0 | 0.00 | 0.23 | 0.23 | 100 | 1012.0 |
| 20260904023054 | 69 | 0 | 0.0 | 0.0 | 0.00 | 0.23 | 0.23 | 100 | 1012.2 |
| 20260904021549 | 69 | 0 | 0.0 | 0.0 | 0.00 | 0.23 | 0.23 | 100 | 1012.4 |
| 20260904020058 | 69 | 0 | 0.0 | 0.0 | 0.00 | 0.23 | 0.23 | 100 | 1012.5 |
| 20260904014613 | 69 | 0 | 0.0 | 0.0 | 0.00 | 0.23 | 0.23 | 100 | 1012.6 |
| 20260904013049 | 69 | 0 | 0.0 | 0.0 | 0.00 | 0.23 | 0.23 | 100 | 1012.7 |
| 20260904011602 | 69 | 0 | 0.0 | 0.0 | 0.00 | 0.23 | 0.23 | 100 | 1012.7 |
| 20260904010058 | 69 | 0 | 0.0 | 0.0 | 0.00 | 0.23 | 0.23 | 100 | 1012.7 |
| 20260904004554 | 69 | 0 | 0.0 | 0.0 | 0.00 | 0.23 | 0.23 | 100 | 1012.6 |
| 20260904003104 | 69 | 0 | 0.0 | 1.7 | 0.00 | 0.23 | 0.23 | 100 | 1012.4 |
| 20260904001559 | 69 | 0 | 0.0 | 1.7 | 0.00 | 0.23 | 0.23 | 100 | 1012.4 |
| 20260904000059 | 69 | 0 | 0.0 | 0.9 | 0.00 | 0.23 | 0.23 | 100 | 1012.1 |
| 20260903234552 | 69 | 107 | 0.0 | 1.7 | 0.00 | 0.23 | 0.23 | 100 | 1012.0 |
| 20260903233051 | 69 | 0 | 0.0 | 2.6 | 0.00 | 0.23 | 0.23 | 100 | 1012.0 |
| 20260903231606 | 69 | 0 | 0.0 | 0.0 | 0.00 | 0.23 | 0.23 | 100 | 1012.1 |
| 20260903224555 | 69 | 0 | 0.0 | 0.0 | 0.00 | 0.23 | 0.23 | 100 | 1012.2 |
| 20260903223051 | 69 | 0 | 0.0 | 0.0 | 0.00 | 0.23 | 0.23 | 100 | 1012.4 |
| 20260903221548 | 69 | 0 | 0.0 | 0.0 | 0.00 | 0.23 | 0.23 | 100 | 1012.4 |
| 20260903220120 | 69 | 0 | 0.0 | 0.0 | 0.00 | 0.23 | 0.23 | 100 | 1012.4 |
| 20260903214556 | 69 | 0 | 0.0 | 0.0 | 0.00 | 0.23 | 0.23 | 100 | 1012.5 |
| 20260903213051 | 69 | 0 | 0.0 | 0.0 | 0.00 | 0.23 | 0.23 | 100 | 1012.8 |
| 20260903211604 | 69 | 0 | 0.0 | 0.0 | 0.00 | 0.23 | 0.23 | 100 | 1012.5 |